Location: Unspecified
(0.0000°N, 0.0000°E)
Time: 15:37:15
(UTC+00:00)

Vanguard 1 Rocket - Visible Passes

Search period start: 06 February 2016 00:00
Search period end: 16 February 2016 00:00
Orbit: 650 x 4227 km, 34.3° (Epoch: 04 February)

Date Brightness Start Highest point End Pass type
(mag) Time Alt. Az. Time Alt. Az. Time Alt. Az.
06 Feb 10.9 04:10:42 11° NNW 04:24:15 28° NE 04:43:58 10° E visible
06 Feb 6.6 19:33:56 10° SW 19:38:44 78° SE 19:39:47 51° ENE visible
07 Feb 10.9 03:03:38 14° N 03:09:08 17° NNE 03:21:07 10° ENE visible
07 Feb 11.0 05:23:49 10° NW 05:42:35 51° NE 06:07:31 10° ESE visible
07 Feb 9.5 20:49:31 10° W 20:50:14 13° WNW 20:50:14 13° WNW visible
08 Feb 10.8 04:13:53 13° NNW 04:27:38 34° NE 04:49:07 10° E visible
08 Feb 7.1 19:37:18 10° WSW 19:42:04 55° NW 19:43:22 39° NNE visible
09 Feb 10.8 03:06:51 17° N 03:13:04 21° NE 03:27:35 10° ENE visible
09 Feb 10.9 05:26:35 10° NW 05:45:22 60° NE 06:11:13 10° ESE visible
10 Feb 11.2 01:59:51 10° NNE 01:59:51 10° NNE 02:01:23 10° NE visible
10 Feb 10.7 04:17:10 15° NNW 04:30:43 41° NE 04:53:41 10° ESE visible
10 Feb 8.1 19:41:07 10° W 19:45:22 29° NW 19:46:59 23° N visible
11 Feb 10.7 03:10:12 20° N 03:16:37 26° NE 03:33:26 10° E visible
11 Feb 10.7 05:29:26 10° NW 05:48:03 71° NE 06:14:32 10° ESE visible
11 Feb 7.0 18:28:39 10° SW 18:34:47 84° NW 18:39:11 10° NE visible
12 Feb 11.1 02:03:15 13° NE 02:03:15 13° NE 02:09:49 10° ENE visible
12 Feb 10.5 04:20:34 18° NNW 04:33:34 50° NE 04:57:43 10° ESE visible
12 Feb 8.9 19:45:34 10° WNW 19:48:41 17° NW 19:50:38 13° N visible
13 Feb 10.5 03:13:39 25° N 03:19:50 32° NE 03:38:36 10° E visible
13 Feb 10.6 05:32:25 10° NW 05:50:43 84° NE 06:17:34 10° SE visible
13 Feb 7.9 18:32:05 10° WSW 18:38:02 47° NW 18:42:19 10° NE visible
14 Feb 10.9 02:06:46 17° NE 02:06:46 17° NE 02:16:44 10° ENE visible
14 Feb 10.4 04:24:05 21° NNW 04:36:18 61° NE 05:01:18 10° ESE visible
15 Feb 10.2 03:17:13 32° N 03:22:47 39° NE 03:43:08 10° ESE visible
15 Feb 10.5 05:35:34 10° NW 05:53:28 84° SW 06:20:21 10° SE visible
15 Feb 8.8 18:35:56 10° W 18:41:11 28° NW 18:45:06 10° NNE visible
